Weather History for KALI - September, 2013

Change the Weather History Date:

Saturday, September 21, 2013

  Actual Average Record
Temperature  
Mean Temperature 76 °F -  
Max Temperature 82 °F 88 °F 98 °F (2005)
Min Temperature 70 °F 68 °F 61 °F (2002)
Cooling Degree Days 10    
Growing Degree Days 26 (Base 50)    
Moisture  
Dew Point 71 °F    
Average Humidity 90    
Maximum Humidity 100    
Minimum Humidity 69    
Precipitation  
Precipitation 0.19 in - - ()
Sea Level Pressure  
Sea Level Pressure 29.79 in    
Wind  
Wind Speed 10 mph (North)    
Max Wind Speed 18 mph    
Max Gust Speed 28 mph    
Visibility 9 miles    
Events Rain , Thunderstorm    
Averages and records for this station are not official NWS values.
T = Trace of Precipitation, MM = Missing Value Source: NWS Daily Summary

Daily Weather History Graph

Daily Weather History Graph

Search for Another Location

Airport or City:

Trip Planner

Search our weather history database for the weather conditions in past years. The results will help you decide how hot, cold, wet, or windy it might be!

Date:

Astronomy

Sep. 21, 2013 Rise Set
Actual Time 7:20 AM CDT 7:29 PM CDT
Civil Twilight 6:56 AM CDT 7:52 PM CDT
Nautical Twilight 6:29 AM CDT 8:19 PM CDT
Astronomical Twilight 6:02 AM CDT 8:47 PM CDT
Moon 8:58 PM CDT (9/21) 9:24 AM CDT (9/21)
Length of Visible Light 12h 55m
Length of Day
12h 09m
Waning Gibbous, 94% of the Moon is Illuminated
Sep 21
Waning Gibbous
Sep 26
Last Quarter
Oct 4
New
Oct 11
First Quarter
Oct 18
Full

Hourly Weather History & Observations

Time (CDT) Temp. Heat Index Dew Point Humidity Pressure Visibility Wind Dir Wind Speed Gust Speed Precip Events Conditions
12:00 AM 75.2 °F - 73.4 °F 94% 29.78 in 10.0 mi Calm Calm - 0.01 in Rain , Thunderstorm Light Rain
12:15 AM 75.2 °F - 73.4 °F 94% 29.79 in 10.0 mi Calm Calm - 0.01 in Rain Light Rain
12:43 AM 75.2 °F - 73.4 °F 94% 29.75 in 10.0 mi NNW 10.4 mph - 0.04 in Rain Light Rain
12:53 AM 75.0 °F - 75.0 °F 100% 29.75 in 10.0 mi North 9.2 mph - 0.04 in Rain Light Rain
1:17 AM 75.2 °F - 73.4 °F 94% 29.76 in 10.0 mi North 11.5 mph - 0.01 in Rain Light Rain
1:53 AM 75.0 °F - 73.9 °F 96% 29.74 in 10.0 mi North 10.4 mph - 0.01 in   Overcast
2:53 AM 75.0 °F - 73.0 °F 94% 29.74 in 10.0 mi North 8.1 mph - N/A   Overcast
3:18 AM 73.4 °F - 73.4 °F 100% 29.75 in 6.0 mi North 12.7 mph - 0.00 in Rain Light Rain
3:53 AM 73.0 °F - 72.0 °F 96% 29.75 in 10.0 mi North 15.0 mph - 0.01 in   Overcast
4:42 AM 71.6 °F - 71.6 °F 100% 29.76 in 2.5 mi North 16.1 mph - 0.07 in Rain Heavy Rain
4:51 AM 71.6 °F - 71.6 °F 100% 29.76 in 3.0 mi North 15.0 mph 21.9 mph 0.08 in Rain Rain
4:53 AM 72.0 °F - 71.1 °F 97% 29.75 in 3.0 mi North 16.1 mph 23.0 mph 0.08 in Rain Light Rain
5:53 AM 72.0 °F - 71.1 °F 97% 29.77 in 10.0 mi North 15.0 mph - 0.01 in   Overcast
6:08 AM 71.6 °F - 71.6 °F 100% 29.78 in 10.0 mi North 13.8 mph 21.9 mph N/A   Overcast
6:40 AM 71.6 °F - 71.6 °F 100% 29.79 in 6.0 mi North 15.0 mph - 0.00 in Rain Light Rain
6:53 AM 72.0 °F - 71.1 °F 97% 29.79 in 4.0 mi North 10.4 mph - 0.01 in Rain Rain
7:01 AM 71.6 °F - 71.6 °F 100% 29.80 in 4.0 mi North 12.7 mph 20.7 mph 0.02 in Rain Rain
7:29 AM 71.6 °F - 71.6 °F 100% 29.80 in 10.0 mi North 12.7 mph - 0.03 in   Overcast
7:35 AM 71.6 °F - 71.6 °F 100% 29.80 in 10.0 mi NNW 10.4 mph - 0.03 in   Overcast
7:53 AM 72.0 °F - 71.1 °F 97% 29.80 in 10.0 mi NNW 11.5 mph - 0.03 in   Overcast
8:10 AM 71.6 °F - 71.6 °F 100% 29.81 in 10.0 mi North 13.8 mph - N/A   Overcast
8:53 AM 72.0 °F - 71.1 °F 97% 29.81 in 10.0 mi North 15.0 mph 21.9 mph N/A   Overcast
8:57 AM 71.6 °F - 71.6 °F 100% 29.82 in 10.0 mi North 15.0 mph - N/A   Overcast
9:12 AM 73.4 °F - 71.6 °F 94% 29.82 in 10.0 mi North 12.7 mph - N/A   Overcast
9:24 AM 73.4 °F - 71.6 °F 94% 29.82 in 10.0 mi North 18.4 mph - N/A   Overcast
9:32 AM 73.4 °F - 69.8 °F 88% 29.83 in 10.0 mi North 16.1 mph 27.6 mph N/A   Overcast
9:53 AM 73.9 °F - 71.1 °F 91% 29.83 in 10.0 mi North 16.1 mph 21.9 mph N/A   Overcast
10:53 AM 75.0 °F - 70.0 °F 84% 29.84 in 10.0 mi North 16.1 mph 23.0 mph N/A   Overcast
11:53 AM 73.9 °F - 70.0 °F 87% 29.85 in 10.0 mi North 15.0 mph - N/A   Overcast
12:53 PM 75.0 °F - 70.0 °F 84% 29.83 in 10.0 mi North 13.8 mph - 0.00 in   Overcast
1:53 PM 78.1 °F - 69.1 °F 74% 29.82 in 10.0 mi North 15.0 mph 23.0 mph N/A   Overcast
2:53 PM 77.0 °F - 69.1 °F 76% 29.81 in 10.0 mi NNE 15.0 mph - N/A   Overcast
3:24 PM 78.8 °F - 69.8 °F 74% 29.81 in 10.0 mi NNE 15.0 mph 21.9 mph N/A   Overcast
3:53 PM 79.0 °F - 69.1 °F 72% 29.80 in 10.0 mi NNE 16.1 mph - N/A   Overcast
4:53 PM 79.0 °F - 68.0 °F 69% 29.78 in 10.0 mi NNE 15.0 mph - N/A   Mostly Cloudy
5:53 PM 80.1 °F 82.9 °F 69.1 °F 69% 29.78 in 10.0 mi NNE 10.4 mph 19.6 mph N/A   Overcast
6:53 PM 78.1 °F - 68.0 °F 71% 29.78 in 10.0 mi NNE 8.1 mph - N/A   Partly Cloudy
7:53 PM 75.0 °F - 68.0 °F 79% 29.79 in 10.0 mi North 5.8 mph - N/A   Partly Cloudy
8:53 PM 73.0 °F - 68.0 °F 84% 29.81 in 10.0 mi North 5.8 mph - N/A   Clear
9:53 PM 71.1 °F - 66.9 °F 87% 29.81 in 10.0 mi North 4.6 mph - N/A   Clear
10:53 PM 71.1 °F - 66.9 °F 87% 29.82 in 10.0 mi North 5.8 mph - N/A   Clear
11:53 PM 70.0 °F - 66.0 °F 87% 29.82 in 10.0 mi NNW 5.8 mph - N/A   Clear